Location: Goettingen
(51.5300°N, 9.9433°E)
Time: 00:44:00
(UTC+02:00)

ISS - Pass Details

Date: 28 May 2017
Orbit: 402 x 408 km, 51.6° (Epoch: 30 May)

Event Time Altitude Azimuth Distance (km) Brightness Sun altitude
Rises 23:12:14 0° 262° (W) 2,332 0.3 -11.9°
Reaches altitude 10° 23:14:19 10° 262° (W) 1,471 -0.7 -12.0°
Maximum altitude 23:17:37 89° 182° (S) 413 -3.9 -12.3°
Drops below altitude 10° 23:20:55 10° 84° (E) 1,470 -1.2 -12.5°
Sets 23:23:00 0° 84° (E) 2,330 -0.2 -12.7°
